Location: Innerarity Island Observatory
(30.3139°N, 87.4867°W)
Time: 22:15:21
(UTC-05:00)

JAS-2 - Visible Passes

Search period start: 25 August 2016 00:00
Search period end: 04 September 2016 00:00
Orbit: 800 x 1322 km, 98.6° (Epoch: 25 August)

Date Brightness Start Highest point End Pass type
(mag) Time Alt. Az. Time Alt. Az. Time Alt. Az.
25 Aug 11.8 01:15:35 10° N 01:17:24 20° N 01:17:24 20° N visible
26 Aug 12.2 00:20:57 10° NNE 00:21:37 13° NNE 00:21:37 13° NNE visible
26 Aug 11.9 02:06:22 10° N 02:08:05 18° NNW 02:08:05 18° NNW visible
27 Aug 11.9 01:10:34 10° N 01:12:18 20° N 01:12:18 20° N visible
28 Aug 12.2 00:16:02 10° NNE 00:16:30 12° NNE 00:16:30 12° NNE visible
28 Aug 11.9 02:01:15 10° N 02:02:59 18° NNW 02:02:59 18° NNW visible
29 Aug 12.0 01:05:34 10° NNE 01:07:11 19° NNE 01:07:11 19° NNE visible
30 Aug 12.3 00:11:09 10° NNE 00:11:24 11° NE 00:11:24 11° NE visible
30 Aug 11.9 01:56:09 10° N 01:57:53 18° NNW 01:57:53 18° NNW visible
31 Aug 12.0 01:00:35 10° NNE 01:02:05 18° NNE 01:02:05 18° NNE visible
31 Aug 12.2 02:48:24 10° NNW 02:48:33 10° NW 02:48:33 10° NW visible
01 Sep 12.4 00:06:17 10° NE 00:06:18 10° NE 00:06:18 10° NE visible
01 Sep 12.0 01:51:05 10° N 01:52:46 18° NNW 01:52:46 18° NNW visible
02 Sep 12.1 00:55:37 10° NNE 00:56:58 17° NNE 00:56:58 17° NNE visible
02 Sep 12.2 02:43:04 10° NNW 02:43:27 11° NNW 02:43:27 11° NNW visible
03 Sep 12.0 01:46:02 10° N 01:47:40 18° N 01:47:40 18° N visible
